Other Surface Observations
Issued by NWS Tucson, AZ

Home | Current Version | Previous Version | Text Only | Print | Product List | Glossary On
Versions: 1 2 3 4 5 6 7 8 9 10 11 12 13 14 15 16 17 18 19 20 21 22 23 24 25 26 27 28 29 30 31 32 33 34 35 36 37 38 39 40 41 42 43 44 45 46 47 48 49 50
000
SXUS55 KTWC 250016
OSOTWC

WEATHER ROUNDUP FOR SOUTHEAST ARIZONA
NATIONAL WEATHER SERVICE TUCSON AZ
515 PM MST THU APR 24 2014

AZZ504>506-514-250115-
LOCATION       SKY/WX    TMP DP  RH WIND       PRES   REMARKS
TUCSON         SUNNY     87   8   5 NW8       29.90F
DAVIS-MONTHAN  SUNNY     87  13   6 W12       29.89F
CHILDRENS PARK N/A       87 N/A N/A W6                PIMA CO DEQ
ALVERNON/22ND  N/A       88 N/A N/A W7                PIMA CO DEQ
CHERRY/GLENN   N/A      N/A N/A N/A N/A               PIMA CO DEQ
TANGERINE      N/A       87 N/A N/A W7                PIMA CO DEQ
CONTL RANCH    N/A       89  20   8 W8                PIMA CO DEQ
GRANT/1ST      N/A       88  16   7 W7                PIMA CO DEQ
CRAYCROFT/22ND N/A       87  18   8 W10               PIMA CO DEQ
GOLFLINKS/KOLB N/A      N/A N/A N/A N/A               PIMA CO DEQ
AJO/12TH       N/A       87  12   6 W7                PIMA CO DEQ
SAGUARO EAST   N/A       87  18   8 W9                PIMA CO DEQ
FAIRGROUNDS    N/A       86 N/A N/A W10               PIMA CO DEQ
SAGUARO        N/A       89  17   7 NW10G19           *SABINO CYN
SAN CARLOS     N/A       86  11   6 SW9G16            *SAN CARLOS
GREEN VALLEY   N/A       87  18   8 SW9               PIMA CO DEQ
HORSE CAMP CYN N/A       82   8   6 SW17G26           *ARAVAIPA CYN
RINCON MTNS    N/A       64  10  12 W4G18             *NR MANNING CAMP
$$

AZZ509>511-250115-
LOCATION       SKY/WX    TMP DP  RH WIND       PRES   REMARKS
SAFFORD        SUNNY     86   6   5 NW6       29.87F
STRAY HORSE    N/A       65   5   9 SW8G20            *
TRAIL CABIN    N/A       71   4   7 S4G15             *N OF GRANVILLE
BLACK HILLS    N/A       85  11   6 SW3G12            *N OF FT THOMAS
DRY LAKE       N/A       67   6   9 SW5G11            *NATANES MTNS
NOON CREEK     N/A       79  10   7 NE3G12            *PINALENO MTNS
COLUMBINE      N/A       58  11  15 S7G16             *PINALENO MTNS
GUTHRIE        N/A       71   7   8 SW11G30           *SW OF GUTHRIE
$$

AZZ502-503-513-250115-
LOCATION       SKY/WX    TMP DP  RH WIND       PRES   REMARKS
NOGALES        SUNNY     82  14   8 S10       29.97F
SELLS          N/A       87  19   8 SW8G17            *
SASABE         N/A       84  10   6 W12G21            *ALTAR VLY
HOPKINS        N/A       78  15   9 W9G21             *SANTA RITA MTNS
CARR CYN       N/A       77  16  10 S5G12             *W OF HEREFORD
$$

AZZ507-508-512-250115-
LOCATION       SKY/WX    TMP DP  RH WIND       PRES   REMARKS
SIERRA VISTA   PTSUNNY   81  12   7 SW15      30.01R
DOUGLAS        SUNNY     84   7   5 W18G25    29.96S
EMPIRE MTNS    N/A       80  16   9 W10G26            *LAS CIENEGAS NCA
MULESHOE RANCH N/A       81   4   5 W9G22             *PRESERVE
HEADQUARTERS   N/A       78  17  10 W8G19             *CHIRICAHUA MTNS
$$

.............................NOTES.............................
THIS IS AN AUTOMATED COLLECTIVE WITH MINIMAL QUALITY CONTROL.
PIMA CO DEQ SITES HAVE NONSTANDARD WIND SENSOR HEIGHTS.
PIMA CO DEQ SITES DO NOT REPORT WIND GUSTS.
* INDICATES WIND SENSORS LOCATED AT 20 FEET INSTEAD OF 33 FEET.
..............................KEY..............................
SKY/WX - SKY CONDITION/WEATHER
TMP    - TEMPERATURE IN FAHRENHEIT
DP     - DEWPOINT IN FAHRENHEIT
RH     - RELATIVE HUMIDITY IN PERCENT
WIND   - DIRECTION AND SPEED IN MILES PER HOUR (MPH)
VRB    - VARIABLE WIND DIRECTION
PRES   - MEAN SEA LEVEL PRESSURE IN INCHES OF MERCURY
         F - FALLING PRESSURE   R - RISING PRESSURE
         S - STEADY PRESSURE
VSB    - VISIBILITY IN MILES
HX     - HEAT INDEX IN FAHRENHEIT
WCI    - WIND CHILL INDEX IN FAHRENHEIT
N/A    - NOT AVAILABLE
AFB    - AIR FORCE BASE
         DAVIS-MONTHAN IS DAVIS-MONTHAN AIR FORCE BASE
CYN    - CANYON
MTNS   - MOUNTAINS
NCA    - NATIONAL CONSERVATION AREA
NR     - NEAR
VLY    - VALLEY
CONTL  - CONTINENTAL
PIMA CO DEQ - PIMA COUNTY DEPT OF ENVIRONMENTAL QUALITY



USA.gov is the U.S. government's official web portal to all federal, state and local government web resources and services.